GW1080 Weather Reports


time (UTC)temp
C
wind
direction
speed
KPH
gust
KPH
rain 1hr
cm
rain 24hr
cm
rain mn
cm
humidity
%
barometer
mb
20260510081603 9 0 0.0 0.0 0.00 0.89 0.03 89 1011.2
20260510081100 9 0 0.0 1.6 0.00 0.89 0.03 88 1011.0
20260510080559 10 0 0.0 1.6 0.00 0.89 0.03 88 1010.9
20260510080100 10 0 0.0 1.6 0.00 0.89 0.03 89 1010.9
20260510075559 10 0 0.0 1.6 0.00 0.99 0.03 89 1010.8
20260510075059 10 0 0.0 1.6 0.00 0.99 0.03 88 1010.7
20260510074559 10 0 0.0 1.6 0.00 0.99 0.03 89 1010.5
20260510074100 10 0 0.0 6.4 0.00 0.99 0.03 89 1010.5
20260510073559 10 316 0.0 6.4 0.00 0.99 0.03 89 1010.4
20260510073100 10 0 0.0 3.2 0.00 0.99 0.03 90 1010.2
20260510072600 10 0 0.0 3.2 0.00 0.99 0.03 91 1010.0
20260510072100 10 0 0.0 3.2 0.00 0.99 0.03 91 1010.1
20260510071600 10 0 0.0 4.8 0.00 0.99 0.03 92 1010.1
20260510071059 10 27 1.6 4.8 0.00 0.99 0.03 91 1010.1
20260510070601 10 37 0.0 4.8 0.00 0.99 0.03 92 1009.9
20260510065600 11 49 0.0 3.2 0.00 1.22 0.03 93 1009.8
20260510065100 11 0 1.6 3.2 0.00 1.22 0.03 93 1009.8
20260510064606 11 33 0.0 1.6 0.00 1.22 0.03 93 1009.9
20260510064059 11 0 0.0 1.6 0.00 1.22 0.03 93 1009.8
20260510063559 11 23 0.0 1.6 0.00 1.22 0.03 93 1009.8
20260510063058 11 3 0.0 1.6 0.00 1.22 0.03 94 1009.7
20260510062600 11 0 0.0 0.0 0.00 1.22 0.03 93 1009.7
20260510062059 11 0 0.0 0.0 0.00 1.22 0.03 93 1009.7
20260510061601 11 0 0.0 0.0 0.00 1.22 0.03 94 1009.7
20260510061100 11 0 0.0 0.0 0.00 1.22 0.03 94 1009.6
20260510060600 11 0 0.0 0.0 0.00 1.22 0.03 94 1009.6
20260510060059 11 0 0.0 0.0 0.00 1.22 0.03 94 1009.6
20260510055602 11 0 0.0 0.0 0.00 1.45 0.03 94 1009.6
20260510055100 11 0 0.0 1.6 0.00 1.45 0.03 94 1009.6
20260510054600 11 0 0.0 1.6 0.00 1.45 0.03 94 1009.6
20260510054100 11 50 0.0 1.6 0.00 1.45 0.03 94 1009.4
20260510053600 11 0 0.0 3.2 0.00 1.45 0.03 94 1009.7
20260510053059 11 0 0.0 3.2 0.00 1.45 0.03 94 1009.7
20260510052603 11 8 0.0 4.8 0.00 1.45 0.03 94 1009.6
20260510052100 11 41 1.6 4.8 0.00 1.45 0.03 94 1009.5
20260510051606 11 34 0.0 3.2 0.00 1.45 0.03 94 1009.4
20260510051100 11 0 0.0 0.0 0.00 1.45 0.03 93 1008.6
20260510050600 11 0 0.0 0.0 0.00 1.45 0.03 93 1008.3
20260510045600 11 0 0.0 0.0 0.03 1.57 0.03 93 1008.0
20260510045100 11 0 0.0 0.0 0.03 1.57 0.03 93 1008.0
20260510044617 11 0 0.0 0.0 0.03 1.57 0.03 93 1007.9
20260510044100 11 0 0.0 0.0 0.03 1.57 0.03 93 1007.9
20260510043619 11 0 0.0 0.0 0.03 1.57 0.03 93 1007.9
20260510043059 11 0 0.0 0.0 0.03 1.57 0.03 93 1007.9
20260510042600 11 0 0.0 0.0 0.03 1.57 0.03 93 1007.7
20260510042100 12 0 0.0 1.6 0.03 1.57 0.03 93 1007.7
20260510041559 12 0 0.0 1.6 0.03 1.57 0.03 93 1007.7
20260510041101 12 0 0.0 3.2 0.03 1.57 0.03 93 1007.8
20260510040603 12 188 0.0 3.2 0.03 1.57 0.03 93 1007.9
20260510040101 12 284 1.6 3.2 0.00 1.55 0.00 93 1008.1
20260510035601 12 269 0.0 3.2 0.00 1.65 1.55 94 1008.1
20260510035100 12 0 1.6 4.8 0.00 1.65 1.55 94 1008.1
20260510034558 12 223 1.6 4.8 0.03 1.65 1.55 94 1007.7
20260510034101 11 126 0.0 3.2 0.05 1.65 1.55 94 1007.9
20260510033602 11 271 0.0 1.6 0.08 1.65 1.55 94 1008.4
20260510033109 11 210 0.0 1.6 0.10 1.65 1.55 94 1008.1
20260510032600 11 0 0.0 1.6 0.10 1.65 1.55 94 1008.0
20260510032100 11 0 0.0 0.0 0.10 1.65 1.55 94 1008.0
20260510031558 11 210 0.0 0.0 0.10 1.65 1.55 94 1007.9
20260510031100 11 0 0.0 0.0 0.10 1.65 1.55 94 1007.8
20260510030600 11 0 0.0 1.6 0.10 1.65 1.55 94 1007.6
20260510030106 11 0 0.0 1.6 0.10 1.65 1.55 94 1007.6
20260510025601 12 0 0.0 4.8 0.10 1.68 1.55 94 1007.9
20260510025059 12 133 0.0 6.4 0.10 1.68 1.55 94 1007.9
20260510024603 12 237 1.6 6.4 0.08 1.65 1.52 94 1008.9
20260510024101 11 236 1.6 6.4 0.05 1.63 1.47 94 1009.1
20260510023600 11 266 1.6 6.4 0.03 1.60 1.47 94 1008.5
20260510023111 11 262 0.0 0.0 0.00 1.57 1.45 94 1008.1
20260510022601 11 0 0.0 4.8 0.00 1.57 1.45 94 1007.8
20260510022101 11 0 0.0 4.8 0.00 1.57 1.45 94 1007.7
20260510021605 11 0 0.0 4.8 0.00 1.57 1.45 94 1007.7
20260510021100 11 129 0.0 1.6 0.00 1.57 1.45 94 1007.8
20260510020600 11 0 0.0 1.6 0.00 1.57 1.45 94 1007.9
20260510020100 11 0 0.0 1.6 0.00 1.57 1.45 94 1007.6
20260510015600 11 0 0.0 1.6 0.00 1.63 1.45 93 1007.5
20260510015100 11 0 0.0 1.6 0.00 1.63 1.45 93 1007.5
20260510014603 11 0 0.0 1.6 0.00 1.63 1.45 93 1007.5
20260510014101 11 0 0.0 0.0 0.00 1.63 1.45 93 1007.5
20260510013601 11 0 0.0 0.0 0.00 1.63 1.45 93 1007.5
20260510013115 11 0 0.0 0.0 0.00 1.63 1.45 93 1007.5
20260510012601 11 0 0.0 0.0 0.00 1.63 1.45 93 1007.5
20260510012103 11 0 0.0 0.0 0.00 1.63 1.45 93 1007.4
20260510011601 12 0 0.0 0.0 0.00 1.63 1.45 92 1007.3
20260510011100 12 0 0.0 0.0 0.00 1.63 1.45 92 1007.3
20260510010600 12 0 0.0 0.0 0.00 1.63 1.45 92 1007.1
20260510010104 12 0 0.0 0.0 0.00 1.63 1.45 92 1007.1
20260510005600 12 0 0.0 0.0 0.00 1.80 1.45 92 1007.0
20260510005100 12 0 0.0 0.0 0.00 1.80 1.45 92 1007.0
20260510004600 12 0 0.0 0.0 0.03 1.80 1.45 92 1007.0
20260510004100 12 0 0.0 0.0 0.05 1.80 1.45 92 1007.0
20260510003601 12 0 0.0 0.0 0.13 1.80 1.45 92 1007.0
20260510003102 12 0 0.0 0.0 0.15 1.80 1.45 92 1007.1
20260510002600 12 0 0.0 0.0 0.20 1.80 1.45 92 1007.0
20260510002100 12 0 0.0 0.0 0.28 1.80 1.45 92 1007.0
20260510001558 12 0 0.0 0.0 0.64 1.80 1.45 92 1007.0
20260510001101 12 0 0.0 0.0 0.76 1.80 1.45 92 1006.9
20260510000601 12 0 0.0 1.6 0.76 1.80 1.45 92 1007.0
20260510000104 12 0 0.0 1.6 0.76 1.80 1.45 91 1007.2
20260509235600 12 0 0.0 1.6 0.76 2.03 1.45 91 1007.2
20260509235100 12 0 0.0 1.6 0.76 2.03 1.45 91 1006.8
20260509234600 12 0 0.0 3.2 0.74 2.01 1.42 91 1006.9
20260509234100 12 0 0.0 3.2 0.71 1.98 1.40 91 1007.2
20260509233601 12 256 0.0 1.6 0.64 1.91 1.32 90 1007.3
20260509233059 12 0 0.0 4.8 0.61 1.88 1.30 90 1007.3
20260509232603 12 5 1.6 9.7 0.56 1.83 1.24 89 1007.4
20260509232101 13 94 1.6 20.9 0.48 1.75 1.17 87 1006.9
20260509231604 13 54 6.4 20.9 0.13 1.40 0.81 84 1006.7
20260509231101 15 11 4.8 11.3 0.00 1.27 0.69 77 1006.6
20260509230600 17 50 6.4 9.7 0.00 1.27 0.69 65 1006.4
20260509230100 18 333 1.6 3.2 0.00 1.27 0.69 61 1005.4
20260509225600 18 268 0.0 3.2 0.00 1.68 0.69 58 1004.4
20260509225100 19 260 0.0 4.8 0.00 1.68 0.69 59 1004.5
20260509224602 19 257 1.6 8.0 0.00 1.68 0.69 57 1004.4
20260509224100 19 255 1.6 8.0 0.00 1.68 0.69 56 1004.4
20260509223601 19 245 1.6 6.4 0.00 1.68 0.69 56 1004.3
20260509223100 19 227 1.6 6.4 0.00 1.68 0.69 55 1004.6
20260509222600 20 245 3.2 6.4 0.00 1.68 0.69 55 1004.6
20260509222101 20 236 3.2 6.4 0.00 1.68 0.69 54 1004.6
20260509221603 20 246 1.6 6.4 0.00 1.68 0.69 55 1004.5
20260509221101 20 0 3.2 6.4 0.00 1.68 0.69 54 1004.3
20260509220600 20 147 3.2 6.4 0.00 1.68 0.69 54 1004.3
20260509215600 20 207 1.6 8.0 0.00 1.75 0.69 55 1004.3
20260509215102 20 269 4.8 8.0 0.00 1.75 0.69 53 1004.3
20260509214608 20 238 3.2 9.7 0.00 1.75 0.69 53 1004.4
20260509214101 20 252 4.8 9.7 0.00 1.75 0.69 55 1004.3
20260509213600 20 253 3.2 8.0 0.00 1.75 0.69 55 1004.2
20260509212601 20 231 3.2 6.4 0.00 1.75 0.69 54 1004.3
20260509212101 20 271 1.6 6.4 0.00 1.75 0.69 55 1004.3
20260509211602 20 245 3.2 8.0 0.00 1.75 0.69 54 1004.5
20260509211101 20 250 3.2 8.0 0.00 1.75 0.69 56 1004.6
20260509210601 20 266 3.2 8.0 0.00 1.75 0.69 56 1004.7
20260509210106 20 251 3.2 8.0 0.00 1.75 0.69 55 1004.8
20260509205604 20 255 3.2 6.4 0.00 1.75 0.69 57 1004.8
20260509205101 20 249 3.2 6.4 0.00 1.75 0.69 57 1004.9
20260509204558 20 266 3.2 8.0 0.00 1.75 0.69 57 1004.9
20260509204100 20 244 3.2 9.7 0.00 1.75 0.69 59 1005.0
20260509203600 20 129 3.2 9.7 0.00 1.75 0.69 58 1005.1
20260509203100 20 239 3.2 8.0 0.00 1.75 0.69 57 1005.0
20260509202600 20 249 3.2 6.4 0.00 1.75 0.69 57 1005.2
20260509202100 20 212 1.6 6.4 0.00 1.75 0.69 59 1005.1
20260509201559 20 210 1.6 8.0 0.00 1.75 0.69 58 1005.3
20260509201101 20 254 4.8 8.0 0.00 1.75 0.69 58 1005.2
20260509200602 20 260 3.2 8.0 0.00 1.75 0.69 60 1005.3
20260509200104 19 273 3.2 9.7 0.00 1.75 0.69 60 1005.2
20260509195600 19 233 3.2 9.7 0.00 1.75 0.69 59 1005.4
20260509195101 19 210 3.2 8.0 0.00 1.75 0.69 57 1005.6
20260509194559 19 185 1.6 6.4 0.00 1.75 0.69 59 1005.7
20260509194101 19 208 3.2 6.4 0.00 1.75 0.69 61 1005.7
20260509193601 18 237 1.6 8.0 0.00 1.75 0.69 61 1005.8
20260509193101 18 254 1.6 8.0 0.00 1.75 0.69 61 1006.0
20260509192600 18 216 1.6 8.0 0.00 1.75 0.69 62 1005.9
20260509192100 18 252 3.2 6.4 0.00 1.75 0.69 61 1006.2
20260509191558 18 249 1.6 3.2 0.00 1.75 0.69 64 1006.4
20260509191101 18 240 0.0 6.4 0.00 1.75 0.69 63 1006.3
20260509190600 18 251 3.2 6.4 0.00 1.75 0.69 64 1006.5
20260509190100 18 232 3.2 6.4 0.00 1.75 0.69 63 1006.3
20260509185600 18 264 1.6 6.4 0.00 1.75 0.69 64 1006.3
20260509185101 18 264 1.6 6.4 0.00 1.75 0.69 63 1006.5
20260509184600 18 204 1.6 8.0 0.00 1.75 0.69 63 1006.5
20260509184100 18 269 3.2 8.0 0.00 1.75 0.69 64 1006.5
20260509183601 18 222 1.6 4.8 0.00 1.75 0.69 65 1006.4
20260509183105 18 270 3.2 4.8 0.00 1.75 0.69 63 1006.4
20260509182604 18 240 1.6 6.4 0.00 1.75 0.69 64 1006.4
20260509182100 18 234 3.2 6.4 0.00 1.75 0.69 66 1006.4
20260509181603 18 243 3.2 6.4 0.00 1.75 0.69 64 1006.3
20260509181101 18 231 3.2 6.4 0.00 1.75 0.69 63 1006.5
20260509180601 17 254 3.2 6.4 0.00 1.75 0.69 67 1006.7
20260509175600 17 260 1.6 6.4 0.00 1.75 0.69 65 1006.7
20260509175100 17 238 1.6 8.0 0.00 1.75 0.69 66 1006.6
20260509174558 17 281 3.2 8.0 0.00 1.75 0.69 68 1006.7
20260509174100 17 248 1.6 6.4 0.00 1.75 0.69 67 1006.7
20260509173600 17 0 1.6 6.4 0.00 1.75 0.69 66 1006.7
20260509172600 17 223 1.6 8.0 0.00 1.75 0.69 68 1006.8
20260509172101 17 245 3.2 8.0 0.00 1.75 0.69 69 1006.7
20260509171601 17 252 0.0 4.8 0.00 1.75 0.69 69 1006.6
20260509171100 17 268 1.6 4.8 0.00 1.75 0.69 71 1006.6
20260509170600 17 262 1.6 4.8 0.00 1.75 0.69 69 1006.5
20260509165600 16 248 1.6 4.8 0.00 1.75 0.69 71 1006.6
20260509165100 16 245 0.0 4.8 0.00 1.75 0.69 74 1006.7
20260509164606 16 248 1.6 4.8 0.00 1.75 0.69 73 1006.8
20260509164104 16 252 0.0 4.8 0.00 1.75 0.69 72 1007.0
20260509163600 16 224 1.6 4.8 0.00 1.75 0.69 74 1007.0
20260509163058 16 265 1.6 4.8 0.00 1.75 0.69 73 1007.0
20260509162600 16 259 1.6 4.8 0.00 1.75 0.69 74 1007.1
20260509162101 16 249 0.0 3.2 0.00 1.75 0.69 77 1007.2
20260509161605 15 241 0.0 3.2 0.00 1.75 0.69 78 1007.1
20260509161101 15 0 0.0 3.2 0.00 1.75 0.69 81 1007.2
20260509160605 15 270 0.0 4.8 0.00 1.75 0.69 81 1007.2
20260509160101 15 0 0.0 4.8 0.00 1.75 0.69 81 1007.3
20260509155603 15 278 0.0 4.8 0.00 1.75 0.69 83 1007.3
20260509155100 14 232 0.0 4.8 0.00 1.75 0.69 84 1007.3
20260509154610 14 247 1.6 4.8 0.00 1.75 0.69 84 1007.3
20260509154103 13 262 0.0 3.2 0.00 1.75 0.69 84 1007.2
20260509153601 13 243 0.0 3.2 0.00 1.75 0.69 84 1007.2
20260509153105 14 278 0.0 4.8 0.00 1.75 0.69 86 1007.2
20260509152602 13 252 1.6 4.8 0.00 1.75 0.69 86 1007.1
20260509152101 13 244 0.0 3.2 0.00 1.75 0.69 88 1007.2
20260509151600 13 0 0.0 3.2 0.00 1.75 0.69 88 1007.3
20260509151100 13 257 0.0 1.6 0.00 1.75 0.69 90 1007.1
20260509150600 13 0 0.0 1.6 0.00 1.75 0.69 90 1007.2
20260509145600 12 0 0.0 1.6 0.00 1.75 0.69 91 1007.4
20260509145101 12 0 0.0 1.6 0.00 1.75 0.69 91 1007.4
20260509144601 12 265 0.0 1.6 0.00 1.75 0.69 93 1007.5
20260509144100 12 254 0.0 1.6 0.00 1.75 0.69 93 1007.4
20260509143600 12 0 0.0 1.6 0.00 1.75 0.69 93 1007.3
20260509143101 12 0 0.0 1.6 0.00 1.75 0.69 93 1007.3
20260509142600 12 0 0.0 1.6 0.00 1.75 0.69 93 1007.4
20260509142100 12 0 0.0 1.6 0.00 1.75 0.69 94 1007.4
20260509141559 12 253 0.0 3.2 0.00 1.75 0.69 94 1007.3
20260509141101 12 0 0.0 3.2 0.00 1.75 0.69 94 1007.4
20260509140600 12 262 0.0 1.6 0.00 1.75 0.69 95 1007.4
20260509140105 12 243 0.0 1.6 0.00 1.75 0.69 95 1007.3
20260509135600 12 242 0.0 1.6 0.00 1.78 0.69 95 1007.3
20260509135059 11 240 0.0 1.6 0.00 1.78 0.69 95 1007.4
20260509134614 11 255 0.0 3.2 0.00 1.78 0.69 95 1007.3
20260509134100 11 255 0.0 3.2 0.00 1.78 0.69 95 1007.4
20260509133600 11 0 0.0 1.6 0.00 1.78 0.69 95 1007.3
20260509133104 11 176 0.0 1.6 0.00 1.78 0.69 95 1007.4
20260509132603 11 0 0.0 0.0 0.00 1.78 0.69 96 1007.4
20260509132100 11 0 0.0 0.0 0.00 1.78 0.69 96 1007.4
20260509131602 11 0 0.0 0.0 0.00 1.78 0.69 95 1007.4
20260509131100 11 0 0.0 0.0 0.00 1.78 0.69 96 1007.3
20260509130600 11 0 0.0 1.6 0.00 1.78 0.69 96 1007.4
20260509130101 11 0 0.0 1.6 0.00 1.78 0.69 96 1007.5
20260509125601 11 0 0.0 0.0 0.00 1.83 0.69 96 1007.4
20260509125058 11 0 0.0 0.0 0.00 1.83 0.69 96 1007.5
20260509124617 11 0 0.0 1.6 0.00 1.83 0.69 96 1007.5
20260509124100 11 0 0.0 1.6 0.00 1.83 0.69 96 1007.6
20260509123600 11 0 0.0 1.6 0.00 1.83 0.69 96 1007.7
20260509123100 11 0 0.0 1.6 0.00 1.83 0.69 96 1007.7
20260509122601 11 0 0.0 1.6 0.00 1.83 0.69 96 1007.7
20260509122059 11 241 0.0 1.6 0.00 1.83 0.69 96 1007.8
20260509121612 11 0 0.0 0.0 0.00 1.83 0.69 96 1007.6
20260509121101 11 0 0.0 0.0 0.00 1.83 0.69 96 1007.6
20260509120601 11 0 0.0 0.0 0.00 1.83 0.69 96 1007.7
20260509120113 11 0 0.0 0.0 0.00 1.83 0.69 96 1007.7
20260509115600 10 0 0.0 0.0 0.00 1.83 0.69 96 1007.7
20260509115100 10 0 0.0 0.0 0.00 1.83 0.69 96 1007.8
20260509114600 10 0 0.0 0.0 0.00 1.83 0.69 96 1007.7
20260509114100 10 0 0.0 0.0 0.00 1.83 0.69 96 1007.7
20260509113600 10 0 0.0 0.0 0.00 1.83 0.69 96 1007.7
20260509113059 10 0 0.0 0.0 0.00 1.83 0.69 96 1007.8
20260509112600 10 0 0.0 0.0 0.00 1.83 0.69 96 1007.8
20260509112100 10 0 0.0 0.0 0.00 1.83 0.69 95 1007.7
20260509111559 10 0 0.0 0.0 0.00 1.83 0.69 95 1007.8
20260509111100 10 0 0.0 0.0 0.00 1.83 0.69 95 1007.6
20260509110601 10 0 0.0 0.0 0.00 1.83 0.69 96 1007.6
20260509105600 10 0 0.0 0.0 0.00 1.83 0.69 95 1007.5
20260509105100 10 0 0.0 0.0 0.00 1.83 0.69 95 1007.5
20260509104559 10 0 0.0 0.0 0.00 1.83 0.69 95 1007.4
20260509104059 10 0 0.0 0.0 0.00 1.83 0.69 95 1007.4
20260509103559 10 0 0.0 0.0 0.00 1.83 0.69 95 1007.4
20260509103104 10 0 0.0 0.0 0.00 1.83 0.69 95 1007.5
20260509102600 10 0 0.0 0.0 0.00 1.83 0.69 95 1007.5
20260509102101 10 0 0.0 0.0 0.00 1.83 0.69 95 1007.5
20260509101603 10 0 0.0 0.0 0.00 1.83 0.69 95 1007.5
20260509101100 10 0 0.0 0.0 0.00 1.83 0.69 95 1007.5
20260509100600 10 0 0.0 0.0 0.00 1.83 0.69 95 1007.6
20260509100101 10 0 0.0 0.0 0.00 1.83 0.69 95 1007.6
20260509095601 10 0 0.0 0.0 0.00 1.83 0.69 95 1007.6
20260509095103 10 0 0.0 0.0 0.00 1.83 0.69 95 1007.6
20260509094601 10 0 0.0 0.0 0.00 1.83 0.69 95 1007.6
20260509094100 10 0 0.0 0.0 0.00 1.83 0.69 95 1007.6
20260509093559 10 0 0.0 0.0 0.00 1.83 0.69 95 1007.6
20260509093100 10 0 0.0 0.0 0.00 1.83 0.69 95 1007.7
20260509092559 10 0 0.0 0.0 0.00 1.83 0.69 95 1007.7
20260509092100 10 0 0.0 0.0 0.00 1.83 0.69 95 1007.8
20260509091635 10 0 0.0 0.0 0.00 1.83 0.69 95 1007.8
20260509091059 10 0 0.0 0.0 0.00 1.83 0.69 95 1007.9
20260509090600 10 0 0.0 0.0 0.00 1.83 0.69 95 1007.8
20260509090059 10 0 0.0 0.0 0.00 1.83 0.69 95 1007.9
20260509085602 10 0 0.0 0.0 0.00 1.83 0.69 95 1007.9
20260509085100 10 0 0.0 0.0 0.00 1.83 0.69 95 1008.0
20260509084601 10 0 0.0 0.0 0.00 1.83 0.69 95 1008.0
20260509084100 10 0 0.0 0.0 0.00 1.83 0.69 95 1008.0
20260509083559 10 0 0.0 1.6 0.00 1.83 0.69 95 1008.1
20260509083058 10 242 0.0 1.6 0.03 1.83 0.69 95 1008.0
20260509082559 10 0 0.0 1.6 0.03 1.83 0.69 95 1008.1
20260509082102 10 242 0.0 1.6 0.03 1.83 0.69 95 1008.1